Rouyn Airport, Quebec

11:08 AM ADT on April 25, 2018 (GMT -0300)
Rouyn Airport

Weather History for CYUY - January, 2013

Change the Weather History Date:

Friday, January 4, 2013

  Actual Average Record
Temperature  
Mean Temperature 14 °F -  
Max Temperature 24 °F - - ()
Min Temperature 5 °F - - ()
Degree Days  
Heating Degree Days 50    
Moisture  
Dew Point 16 °F    
Average Humidity 85    
Maximum Humidity 93    
Minimum Humidity 73    
Precipitation  
Precipitation 0.00 in - - ()
Sea Level Pressure  
Sea Level Pressure 29.62 in    
Wind  
Wind Speed 10 mph ()    
Max Wind Speed 23 mph    
Max Gust Speed 34 mph    
Visibility 7.0 miles    
Events Snow    
T = Trace of Precipitation, MM = Missing Value Source: Averaged Metar Reports

Daily Weather History Graph

Daily Weather History Graph

Search for Another Location

Airport or City:

Astronomy

Jan. 04, 2013 Rise Set
Actual Time 9:05 AM AST 5:35 PM AST
Civil Twilight 8:29 AM AST 6:11 PM AST
Nautical Twilight 7:49 AM AST 6:51 PM AST
Astronomical Twilight 7:12 AM AST 7:28 PM AST
Moon 12:41 AM AST (1/4) 12:11 PM AST (1/4)
Length of Visible Light 9h 42m
Length of Day
8h 29m
Waning Gibbous, 55% of the Moon is Illuminated
Jan 4
Waning Gibbous
Jan 4
Last Quarter
Jan 11
New
Jan 18
First Quarter
Jan 27
Full

Hourly Weather History & Observations

Time (AST) Temp. Windchill Dew Point Humidity Pressure Visibility Wind Dir Wind Speed Gust Speed Precip Events Conditions
12:00 AM 5.0 °F -8.1 °F 3.2 °F 92% 29.76 in 15.0 mi SSW 8.1 mph - N/A   Mostly Cloudy
1:00 AM 6.8 °F -5.9 °F 3.2 °F 85% 29.73 in 15.0 mi SSW 8.1 mph - N/A   Mostly Cloudy
1:16 AM 6.8 °F -6.9 °F 3.2 °F 85% 29.70 in 15.0 mi South 9.2 mph - N/A Snow Light Snow
1:46 AM 8.6 °F -6.3 °F 3.2 °F 79% 29.68 in 3.0 mi SSW 11.5 mph - N/A Snow Light Snow
1:49 AM 8.6 °F -6.3 °F 5.0 °F 85% 29.68 in 1.5 mi SSW 11.5 mph - N/A Snow Light Snow
2:00 AM 8.6 °F -5.5 °F 5.0 °F 85% 29.68 in 1.5 mi SSW 10.4 mph - N/A Snow Light Snow
2:09 AM 8.6 °F -4.7 °F 5.0 °F 85% 29.67 in 5.0 mi SSW 9.2 mph - N/A Snow Light Snow
2:33 AM 8.6 °F -4.7 °F 5.0 °F 85% 29.65 in 1.2 mi SSW 9.2 mph - N/A Snow Light Snow
3:00 AM 10.4 °F -3.3 °F 6.8 °F 85% 29.62 in 4.0 mi SSW 10.4 mph - N/A Snow Light Snow
4:00 AM 12.2 °F -3.7 °F 8.6 °F 85% 29.57 in 2.0 mi SSW 15.0 mph 21.9 mph N/A Snow Light Snow
5:00 AM 15.8 °F -1.5 °F 12.2 °F 86% 29.52 in 2.0 mi SSW 20.7 mph 28.8 mph N/A Snow Light Snow
6:00 AM 19.4 °F 3.6 °F 15.8 °F 86% 29.51 in 3.0 mi SW 19.6 mph 27.6 mph N/A Snow Light Snow
7:00 AM 21.2 °F 7.3 °F 17.6 °F 86% 29.51 in 5.0 mi WSW 16.1 mph 23.0 mph N/A Snow Light Snow
8:00 AM 21.2 °F 8.9 °F 19.4 °F 93% 29.54 in 3.0 mi WNW 12.7 mph 19.6 mph N/A Snow Light Snow
9:00 AM 21.2 °F 10.9 °F 17.6 °F 86% 29.55 in 2.5 mi West 9.2 mph - N/A Snow Light Snow
9:23 AM 21.2 °F 9.5 °F 17.6 °F 86% 29.55 in 4.0 mi West 11.5 mph 18.4 mph N/A Snow Light Snow
9:35 AM 21.2 °F 10.9 °F 17.6 °F 86% 29.56 in 10.0 mi West 9.2 mph - N/A Snow Light Snow
10:00 AM 21.2 °F 11.7 °F 17.6 °F 86% 29.57 in 5.0 mi West 8.1 mph - N/A Snow Light Snow
11:00 AM 23.0 °F 11.1 °F 17.6 °F 80% 29.59 in 10.0 mi West 12.7 mph 18.4 mph N/A Snow Light Snow
12:00 PM 23.0 °F 11.7 °F 17.6 °F 80% 29.61 in 10.0 mi West 11.5 mph 17.3 mph N/A Snow Light Snow
1:00 PM 23.0 °F 12.4 °F 17.6 °F 80% 29.60 in 15.0 mi West 10.4 mph 20.7 mph N/A Snow Light Snow
1:50 PM 23.0 °F 11.1 °F 17.6 °F 80% 29.59 in 15.0 mi West 12.7 mph - N/A   Overcast
2:00 PM 23.0 °F 11.1 °F 17.6 °F 80% 29.59 in 15.0 mi West 12.7 mph 20.7 mph N/A   Overcast
3:00 PM 24.8 °F 14.6 °F 19.4 °F 80% 29.57 in 15.0 mi West 10.4 mph 19.6 mph N/A   Overcast
4:00 PM 24.8 °F 16.1 °F 19.4 °F 80% 29.56 in 15.0 mi SW 8.1 mph - N/A   Overcast
4:21 PM 24.8 °F 16.9 °F 21.2 °F 86% 29.56 in 15.0 mi SW 6.9 mph - N/A Snow Light Snow
5:00 PM 24.8 °F - 21.2 °F 86% 29.57 in 10.0 mi West 2.3 mph - N/A Snow Light Snow
5:29 PM 24.8 °F - 21.2 °F 86% 29.56 in 5.0 mi South 2.3 mph - N/A Snow Light Snow Showers
5:52 PM 24.8 °F 20.5 °F 21.2 °F 86% 29.56 in 5.0 mi South 3.5 mph - N/A   Light Small Hail Showers
6:00 PM 24.8 °F 20.5 °F 21.2 °F 86% 29.55 in 3.0 mi South 3.5 mph - N/A Snow Light Snow
6:43 PM 24.8 °F 17.9 °F 23.0 °F 93% 29.56 in 2.0 mi NNW 5.8 mph - N/A Snow Light Snow
6:49 PM 24.8 °F 17.9 °F 23.0 °F 93% 29.57 in 1.0 mi NNW 5.8 mph - N/A Snow Light Snow
7:00 PM 24.8 °F 16.1 °F 23.0 °F 93% 29.58 in 1.2 mi NNW 8.1 mph - N/A Snow Light Snow
7:16 PM 24.8 °F 17.9 °F 23.0 °F 93% 29.58 in 2.5 mi NW 5.8 mph - N/A Snow Light Snow
7:24 PM 24.8 °F 16.1 °F 23.0 °F 93% 29.59 in 10.0 mi WNW 8.1 mph - N/A Snow Light Snow
7:47 PM 24.8 °F 14.0 °F 21.2 °F 86% 29.60 in 12.0 mi NW 11.5 mph 18.4 mph N/A Snow Light Snow
8:00 PM 24.8 °F 12.9 °F 19.4 °F 80% 29.61 in 10.0 mi NW 13.8 mph 19.6 mph N/A Snow Light Snow
9:00 PM 23.0 °F 10.6 °F 19.4 °F 86% 29.65 in 10.0 mi WNW 13.8 mph 25.3 mph N/A Snow Light Snow
10:00 PM 23.0 °F 11.1 °F 17.6 °F 80% 29.69 in 15.0 mi WNW 12.7 mph 20.7 mph N/A Snow Light Snow
10:23 PM 23.0 °F 10.6 °F 17.6 °F 80% 29.70 in 0.5 mi West 13.8 mph - N/A Snow Snow
10:27 PM 21.2 °F 4.9 °F 17.6 °F 86% 29.73 in 0.2 mi NNW 23.0 mph 34.5 mph N/A Snow Snow
10:32 PM 19.4 °F 3.6 °F 15.8 °F 86% 29.74 in 1.5 mi NNW 19.6 mph 34.5 mph N/A Snow Light Snow
10:49 PM 17.6 °F 2.2 °F 14.0 °F 86% 29.76 in 5.0 mi NNW 17.3 mph 26.5 mph N/A Snow Light Snow
11:00 PM 17.6 °F 2.7 °F 10.4 °F 73% 29.78 in 8.0 mi NNW 16.1 mph 31.1 mph N/A Snow Light Snow